Location: Croissy-Beaubourg
(48.8283°N, 2.6696°E)
Time: 02:01:21
(UTC+00:00)

USA 215 - Pass Details

Date: 26 May 2022
Orbit: 1099 x 1108 km, 123.0° (Epoch: 10 June)

Event Time Altitude Azimuth Distance (km) Brightness Sun altitude
Rises 00:18:04 0° 58° (ENE) 3,925 6.8 -19.7°
Reaches altitude 10° 00:20:34 10° 55° (NE) 2,967 6.1 -19.7°
Maximum altitude 00:27:02 65° 336° (NNW) 1,208 3.6 -19.5°
Drops below altitude 10° 00:33:30 10° 257° (WSW) 2,966 5.3 -19.3°
Sets 00:36:00 0° 254° (WSW) 3,923 5.9 -19.2°
